sat.trackr.live / text

‹ back to catalog

STARLINK-37729

NORAD 69653 · 2026-143E

PAYLOAD ACTIVE UNKNOWN

§ Identity

Operator
Country
US
Launch date
2026-06-21
Launch site
AFWTR
Launch vehicle
Mass (kg)
RCS (m²)

Purposes: comms

External: N2YO · Heavens-Above · Gunter

§ Orbital elements

Epoch: 2026-09-19T08:32:41.791200Z

Period
94.34 min
Inclination
97.2842°
Eccentricity
0.0000997
Mean motion
15.26415466 rev/d
Perigee alt
485.9 km
Apogee alt
487.2 km
Semi-major
6,864.7 km
B*
2.7845e-4
RAAN
305.6751°
Arg perigee
97.3607°
Mean anomaly
262.7746°
Rev number
1,504

§ Raw data

STARLINK-377291 69653U 26143E   26262.35603925  .00007179  00000+0  27845-3 0  99982 69653  97.2842 305.6751 0000997  97.3607 262.7746 15.26415466 15041

JSON: /api/v1/satellites/69653 · /tle

For live sub-satellite position, see the globe view (requires WebGL).

§ Visibility from observer

Set your observer location to see the next 7 days of passes ≥ 10°. The values pass through the URL so the page stays shareable.

No JS? Fill the form by hand. The geolocation button needs JavaScript.